| time (UTC) | temp F | wind direction | speed MPH | gust MPH | rain 1hr in | rain 24hr in | rain mn in | humidity % | barometer mb |
| 20260906120234 | 87 | 101 | 0.0 | 0.0 | 0.00 | 0.00 | 0.00 | 41 | 468.3 |
| 20260906115231 | 87 | 121 | 0.0 | 0.0 | 0.00 | 0.00 | 0.00 | 41 | 520.4 |
| 20260906113745 | 87 | 103 | 0.0 | 0.0 | 0.00 | 0.00 | 0.00 | 42 | 467.2 |
| 20260906113225 | 86 | 115 | 0.0 | 0.0 | 0.00 | 0.00 | 0.00 | 43 | 527.7 |
| 20260906111743 | 87 | 124 | 0.0 | 0.0 | 0.00 | 0.00 | 0.00 | 44 | 463.0 |
| 20260906111711 | 86 | 0 | 0.0 | 0.0 | 0.00 | 0.00 | 0.00 | 43 | 1103.0 |
| 20260906105743 | 85 | 113 | 0.0 | 0.0 | 0.00 | 0.00 | 0.00 | 45 | 605.1 |
| 20260906105220 | 85 | 107 | 0.0 | 0.0 | 0.00 | 0.00 | 0.00 | 44 | 438.6 |
| 20260906103737 | 85 | 0 | 3.0 | 12.0 | 0.00 | 0.00 | 0.00 | 45 | 917.3 |
| 20260906102738 | 85 | 101 | 8.0 | 13.0 | 0.00 | 0.00 | 0.00 | 44 | 535.3 |
| 20260906101734 | 85 | 0 | 8.0 | 16.0 | 0.00 | 0.00 | 0.00 | 45 | 916.0 |
| 20260906100734 | 84 | 121 | 9.0 | 16.0 | 0.00 | 0.00 | 0.00 | 45 | 489.5 |
| 20260906100210 | 85 | 94 | 5.0 | 13.0 | 0.00 | 0.00 | 0.00 | 45 | 553.8 |
| 20260906094731 | 84 | 106 | 7.0 | 14.0 | 0.00 | 0.00 | 0.00 | 46 | 603.8 |
| 20260906093731 | 84 | 105 | 3.0 | 14.0 | 0.00 | 0.00 | 0.00 | 46 | 644.3 |
| 20260906092731 | 83 | 114 | 0.0 | 0.0 | 0.00 | 0.00 | 0.00 | 46 | 457.3 |
| 20260906091727 | 83 | 0 | 0.0 | 0.0 | 0.00 | 0.00 | 0.00 | 47 | 467.9 |
| 20260906090729 | 82 | 0 | 0.0 | 0.0 | 0.00 | 0.00 | 0.00 | 47 | 468.1 |
| 20260906085727 | 82 | 0 | 0.0 | 0.0 | 0.00 | 0.00 | 0.00 | 47 | 714.5 |
| 20260906084722 | 82 | 0 | 0.0 | 0.0 | 0.00 | 0.00 | 0.00 | 48 | 621.3 |
| 20260906083720 | 81 | 0 | 0.0 | 0.0 | 0.00 | 0.00 | 0.00 | 48 | 422.4 |
| 20260906082721 | 81 | 0 | 0.0 | 0.0 | 0.00 | 0.00 | 0.00 | 48 | 820.0 |
| 20260906081715 | 81 | 96 | 0.0 | 0.0 | 0.00 | 0.00 | 0.00 | 49 | 958.3 |
| 20260906080715 | 81 | 107 | 0.0 | 0.0 | 0.00 | 0.00 | 0.00 | 50 | 451.0 |
| 20260906075717 | 81 | 105 | 0.0 | 0.0 | 0.00 | 0.00 | 0.00 | 50 | 747.1 |
| 20260906075153 | 80 | 109 | 0.0 | 0.0 | 0.00 | 0.00 | 0.00 | 50 | 467.5 |
| 20260906074145 | 80 | 0 | 0.0 | 0.0 | 0.00 | 0.00 | 0.00 | 51 | 1038.3 |
| 20260906073154 | 79 | 92 | 0.0 | 0.0 | 0.00 | 0.00 | 0.00 | 51 | 642.2 |
| 20260906071706 | 79 | 0 | 0.0 | 0.0 | 0.00 | 0.00 | 0.00 | 53 | 468.0 |
| 20260906070707 | 79 | 36 | 0.0 | 0.0 | 0.00 | 0.00 | 0.00 | 53 | 613.2 |
| 20260906065707 | 78 | 0 | 0.0 | 0.0 | 0.00 | 0.00 | 0.00 | 53 | 469.9 |
| 20260906064705 | 78 | 0 | 0.0 | 0.0 | 0.00 | 0.00 | 0.00 | 53 | 468.2 |
| 20260906063703 | 78 | 63 | 0.0 | 0.0 | 0.00 | 0.00 | 0.00 | 55 | 488.2 |
| 20260906062703 | 78 | 0 | 0.0 | 0.0 | 0.00 | 0.00 | 0.00 | 55 | 622.9 |
| 20260906061658 | 77 | 0 | 0.0 | 0.0 | 0.00 | 0.00 | 0.00 | 57 | 439.1 |
| 20260906060658 | 77 | 34 | 0.0 | 0.0 | 0.00 | 0.00 | 0.00 | 57 | 479.5 |
| 20260906055659 | 76 | 92 | 0.0 | 0.0 | 0.00 | 0.00 | 0.00 | 58 | 440.2 |
| 20260906054655 | 76 | 33 | 0.0 | 0.0 | 0.00 | 0.00 | 0.00 | 58 | 468.0 |
| 20260906053655 | 76 | 0 | 0.0 | 0.0 | 0.00 | 0.00 | 0.00 | 59 | 521.4 |
| 20260906052656 | 76 | 59 | 6.0 | 12.0 | 0.00 | 0.00 | 0.00 | 59 | 507.7 |
| 20260906051651 | 76 | 0 | 6.0 | 13.0 | 0.00 | 0.00 | 0.00 | 60 | 518.4 |
| 20260906050650 | 76 | 50 | 7.0 | 15.0 | 0.00 | 0.00 | 0.00 | 60 | 540.3 |
| 20260906045651 | 76 | 50 | 8.0 | 16.0 | 0.00 | 0.00 | 0.00 | 60 | 468.4 |
| 20260906045131 | 76 | 0 | 9.0 | 16.0 | 0.00 | 0.00 | 0.00 | 61 | 439.6 |
| 20260906043646 | 75 | 0 | 7.0 | 15.0 | 0.00 | 0.00 | 0.00 | 61 | 513.7 |
| 20260906042647 | 75 | 0 | 7.0 | 13.0 | 0.00 | 0.00 | 0.00 | 62 | 471.4 |
| 20260906042127 | 75 | 0 | 7.0 | 13.0 | 0.00 | 0.00 | 0.00 | 61 | 456.4 |
| 20260906040643 | 75 | 0 | 5.0 | 12.0 | 0.00 | 0.00 | 0.00 | 62 | 471.2 |
| 20260906040128 | 74 | 51 | 2.0 | 9.0 | 0.00 | 0.00 | 0.00 | 64 | 449.2 |
| 20260906034637 | 75 | 50 | 0.0 | 3.0 | 0.00 | 0.00 | 0.00 | 66 | 487.1 |
| 20260906033634 | 75 | 50 | 1.0 | 9.0 | 0.00 | 0.00 | 0.00 | 61 | 476.6 |
| 20260906032632 | 75 | 0 | 2.0 | 10.0 | 0.00 | 0.00 | 0.00 | 61 | 478.1 |
| 20260906031634 | 76 | 55 | 1.0 | 7.0 | 0.00 | 0.00 | 0.00 | 61 | 602.9 |
| 20260906030631 | 76 | 55 | 2.0 | 7.0 | 0.00 | 0.00 | 0.00 | 60 | 472.2 |
| 20260906025633 | 76 | 56 | 3.0 | 8.0 | 0.00 | 0.00 | 0.00 | 60 | 484.9 |
| 20260906024629 | 76 | 56 | 3.0 | 9.0 | 0.00 | 0.00 | 0.00 | 60 | 468.8 |
| 20260906023631 | 76 | 0 | 2.0 | 8.0 | 0.00 | 0.00 | 0.00 | 60 | 482.9 |
| 20260906022631 | 76 | 0 | 2.0 | 8.0 | 0.00 | 0.00 | 0.00 | 61 | 502.9 |
| 20260906021625 | 76 | 0 | 2.0 | 9.0 | 0.00 | 0.00 | 0.00 | 61 | 466.0 |
| 20260906020623 | 76 | 0 | 4.0 | 9.0 | 0.00 | 0.00 | 0.00 | 61 | 560.1 |
| 20260906020555 | 76 | 0 | 3.0 | 8.0 | 0.00 | 0.00 | 0.00 | 62 | 500.8 |
| 20260906014621 | 76 | 0 | 2.0 | 10.0 | 0.00 | 0.00 | 0.00 | 61 | 470.1 |
| 20260906013621 | 77 | 0 | 4.0 | 12.0 | 0.00 | 0.00 | 0.00 | 61 | 463.9 |
| 20260906013110 | 77 | 0 | 8.0 | 14.0 | 0.00 | 0.00 | 0.00 | 60 | 580.0 |
| 20260906011614 | 78 | 0 | 7.0 | 14.0 | 0.00 | 0.00 | 0.00 | 59 | 508.8 |
| 20260906010615 | 78 | 0 | 8.0 | 14.0 | 0.00 | 0.00 | 0.00 | 59 | 842.3 |
| 20260906005622 | 78 | 99 | 6.0 | 12.0 | 0.00 | 0.00 | 0.00 | 58 | 449.9 |
| 20260906004613 | 78 | 0 | 4.0 | 10.0 | 0.00 | 0.00 | 0.00 | 58 | 630.2 |
| 20260906003612 | 78 | 59 | 5.0 | 13.0 | 0.00 | 0.00 | 0.00 | 58 | 504.9 |
| 20260906003548 | 78 | 0 | 4.0 | 9.0 | 0.00 | 0.00 | 0.00 | 57 | 556.9 |
| 20260906001614 | 78 | 54 | 4.0 | 9.0 | 0.00 | 0.00 | 0.00 | 57 | 528.9 |
| 20260906001053 | 77 | 57 | 1.0 | 7.0 | 0.00 | 0.00 | 0.00 | 58 | 1250.3 |
| 20260905235608 | 77 | 53 | 1.0 | 4.0 | 0.00 | 0.00 | 0.00 | 59 | 929.0 |
| 20260905234609 | 78 | 53 | 0.0 | 6.0 | 0.00 | 0.00 | 0.00 | 59 | 814.6 |
| 20260905233605 | 79 | 53 | 1.0 | 6.0 | 0.00 | 0.00 | 0.00 | 56 | 961.8 |
| 20260905233049 | 78 | 55 | 2.0 | 7.0 | 0.00 | 0.00 | 0.00 | 56 | 969.6 |
| 20260905231603 | 78 | 57 | 2.0 | 7.0 | 0.00 | 0.00 | 0.00 | 55 | 456.2 |
| 20260905230605 | 79 | 57 | 3.0 | 9.0 | 0.00 | 0.00 | 0.00 | 55 | 524.1 |
| 20260905225605 | 79 | 55 | 4.0 | 9.0 | 0.00 | 0.00 | 0.00 | 55 | 494.3 |
| 20260905224603 | 79 | 56 | 2.0 | 10.0 | 0.00 | 0.00 | 0.00 | 55 | 474.3 |
| 20260905223605 | 79 | 55 | 3.0 | 9.0 | 0.00 | 0.00 | 0.00 | 54 | 589.9 |
| 20260905222603 | 79 | 0 | 4.0 | 9.0 | 0.00 | 0.00 | 0.00 | 54 | 498.5 |
| 20260905222039 | 79 | 0 | 4.0 | 11.0 | 0.00 | 0.00 | 0.00 | 55 | 406.2 |
| 20260905221049 | 79 | 59 | 4.0 | 13.0 | 0.00 | 0.00 | 0.00 | 55 | 919.9 |
| 20260905215605 | 79 | 0 | 4.0 | 10.0 | 0.00 | 0.00 | 0.00 | 55 | 486.7 |
| 20260905214606 | 79 | 0 | 5.0 | 11.0 | 0.00 | 0.00 | 0.00 | 54 | 769.2 |
| 20260905213603 | 80 | 0 | 6.0 | 13.0 | 0.00 | 0.00 | 0.00 | 54 | 852.6 |
| 20260905212604 | 80 | 0 | 6.0 | 11.0 | 0.00 | 0.00 | 0.00 | 55 | 883.5 |
| 20260905211603 | 80 | 0 | 6.0 | 11.0 | 0.00 | 0.00 | 0.00 | 55 | 468.0 |
| 20260905210603 | 79 | 0 | 4.0 | 10.0 | 0.00 | 0.00 | 0.00 | 55 | 456.5 |
| 20260905205606 | 79 | 0 | 3.0 | 8.0 | 0.00 | 0.00 | 0.00 | 56 | 407.7 |
| 20260905204605 | 80 | 0 | 3.0 | 9.0 | 0.00 | 0.00 | 0.00 | 56 | 498.1 |
| 20260905203600 | 80 | 0 | 3.0 | 6.0 | 0.00 | 0.00 | 0.00 | 56 | 460.6 |
| 20260905202600 | 80 | 0 | 3.0 | 8.0 | 0.00 | 0.00 | 0.00 | 57 | 426.2 |
| 20260905201602 | 80 | 0 | 4.0 | 9.0 | 0.00 | 0.00 | 0.00 | 58 | 745.7 |
| 20260905201029 | 79 | 0 | 3.0 | 6.0 | 0.00 | 0.00 | 0.00 | 59 | 559.9 |
| 20260905195552 | 79 | 0 | 2.0 | 8.0 | 0.00 | 0.00 | 0.00 | 60 | 503.7 |
| 20260905194553 | 80 | 0 | 1.0 | 6.0 | 0.00 | 0.00 | 0.00 | 60 | 1048.5 |
| 20260905193547 | 80 | 0 | 2.0 | 8.0 | 0.00 | 0.00 | 0.00 | 59 | 615.2 |
| 20260905192545 | 80 | 0 | 2.0 | 8.0 | 0.00 | 0.00 | 0.00 | 59 | 922.1 |
| 20260905192510 | 80 | 0 | 2.0 | 7.0 | 0.00 | 0.00 | 0.00 | 60 | 865.2 |
| 20260905190539 | 81 | 95 | 2.0 | 6.0 | 0.00 | 0.00 | 0.00 | 64 | 1125.0 |
| 20260905190009 | 81 | 95 | 0.0 | 6.0 | 0.00 | 0.00 | 0.00 | 69 | 1084.2 |
| 20260905184537 | 81 | 95 | 0.0 | 0.0 | 0.00 | 0.00 | 0.00 | 71 | 988.4 |
| 20260905183533 | 82 | 95 | 0.0 | 0.0 | 0.00 | 0.00 | 0.00 | 70 | 1016.9 |
| 20260905182532 | 82 | 95 | 0.0 | 3.0 | 0.00 | 0.00 | 0.00 | 68 | 515.2 |
| 20260905182005 | 82 | 95 | 0.0 | 4.0 | 0.00 | 0.00 | 0.00 | 67 | 726.1 |
| 20260905180530 | 82 | 95 | 2.0 | 7.0 | 0.00 | 0.00 | 0.00 | 67 | 1066.0 |
| 20260905175523 | 83 | 104 | 1.0 | 4.0 | 0.00 | 0.00 | 0.00 | 64 | 481.2 |
| 20260905175000 | 84 | 103 | 0.0 | 0.0 | 0.00 | 0.00 | 0.00 | 61 | 898.4 |
| 20260905173523 | 85 | 103 | 0.0 | 0.0 | 0.00 | 0.00 | 0.00 | 59 | 584.2 |
| 20260905172523 | 85 | 103 | 0.0 | 4.0 | 0.00 | 0.00 | 0.00 | 58 | 460.8 |
| 20260905171518 | 86 | 103 | 1.0 | 6.0 | 0.00 | 0.00 | 0.00 | 57 | 1008.6 |
| 20260905170512 | 87 | 103 | 0.0 | 0.0 | 0.00 | 0.00 | 0.00 | 55 | 989.6 |
| 20260905165517 | 87 | 103 | 0.0 | 4.0 | 0.00 | 0.00 | 0.00 | 53 | 466.2 |
| 20260905164953 | 88 | 103 | 0.0 | 3.0 | 0.00 | 0.00 | 0.00 | 53 | 510.8 |
| 20260905163507 | 88 | 103 | 0.0 | 0.0 | 0.00 | 0.00 | 0.00 | 52 | 472.8 |
| 20260905163005 | 88 | 103 | 0.0 | 2.0 | 0.00 | 0.00 | 0.00 | 51 | 788.6 |
| 20260905161505 | 88 | 103 | 0.0 | 4.0 | 0.00 | 0.00 | 0.00 | 51 | 814.1 |
| 20260905160505 | 88 | 103 | 1.0 | 6.0 | 0.00 | 0.00 | 0.00 | 49 | 587.9 |
| 20260905155504 | 88 | 100 | 2.0 | 7.0 | 0.00 | 0.00 | 0.00 | 50 | 462.6 |
| 20260905155422 | 88 | 90 | 1.0 | 6.0 | 0.00 | 0.00 | 0.00 | 49 | 489.7 |
| 20260905153504 | 88 | 96 | 1.0 | 6.0 | 0.00 | 0.00 | 0.00 | 48 | 755.3 |
| 20260905152503 | 89 | 96 | 1.0 | 7.0 | 0.00 | 0.00 | 0.00 | 47 | 429.0 |
| 20260905151507 | 89 | 103 | 1.0 | 3.0 | 0.00 | 0.00 | 0.00 | 47 | 901.1 |
| 20260905150506 | 89 | 103 | 0.0 | 4.0 | 0.00 | 0.00 | 0.00 | 46 | 1022.1 |
| 20260905145504 | 89 | 103 | 1.0 | 4.0 | 0.00 | 0.00 | 0.00 | 45 | 928.1 |
| 20260905144507 | 89 | 108 | 1.0 | 6.0 | 0.00 | 0.00 | 0.00 | 46 | 453.9 |
| 20260905143503 | 88 | 107 | 1.0 | 6.0 | 0.00 | 0.00 | 0.00 | 47 | 929.7 |
| 20260905142504 | 89 | 0 | 1.0 | 7.0 | 0.00 | 0.00 | 0.00 | 47 | 452.5 |
| 20260905141505 | 88 | 0 | 0.0 | 3.0 | 0.00 | 0.00 | 0.00 | 49 | 622.9 |
| 20260905140458 | 88 | 0 | 2.0 | 7.0 | 0.00 | 0.00 | 0.00 | 47 | 434.7 |
| 20260905135459 | 89 | 117 | 1.0 | 8.0 | 0.00 | 0.00 | 0.00 | 47 | 557.9 |
| 20260905134456 | 89 | 148 | 1.0 | 7.0 | 0.00 | 0.00 | 0.00 | 46 | 535.6 |
| 20260905134430 | 89 | 114 | 0.0 | 6.0 | 0.00 | 0.00 | 0.00 | 48 | 1077.4 |
| 20260905132448 | 89 | 122 | 2.0 | 9.0 | 0.00 | 0.00 | 0.00 | 46 | 562.4 |
| 20260905131445 | 88 | 126 | 1.0 | 7.0 | 0.00 | 0.00 | 0.00 | 46 | 935.6 |
| 20260905130447 | 88 | 91 | 3.0 | 7.0 | 0.00 | 0.00 | 0.00 | 45 | 1055.4 |
| 20260905125929 | 89 | 114 | 1.0 | 8.0 | 0.00 | 0.00 | 0.00 | 44 | 1085.5 |
| 20260905124440 | 89 | 132 | 1.0 | 6.0 | 0.00 | 0.00 | 0.00 | 44 | 568.2 |
| 20260905123440 | 89 | 137 | 0.0 | 5.0 | 0.00 | 0.00 | 0.00 | 44 | 430.4 |
| 20260905122444 | 88 | 155 | 1.0 | 6.0 | 0.00 | 0.00 | 0.00 | 43 | 463.9 |
| 20260905121433 | 88 | 24 | 1.0 | 4.0 | 0.00 | 0.00 | 0.00 | 42 | 522.8 |